CZ-3C DEB, 48544

Orbit data source: Space-Track

CZ-3C DEB, 48544 is space debris in HEO originally from a launch on Sun, 31 Oct 2010 UTC launched from the Xichang Space Center, China (XSC). Debris objects in space refer to the collection of defunct objects orbiting the Earth. Examples of debris include non-operational satellites, rocket bodies, and fragments generated from explosions, collisions, or faulty payload assembly.

Loading next visibility...
Identifier
48544, 2010-057BP
Orbit
HEO
Country
Flag of CNCN / PRC
Related business
Manufacturer
CALT
Mission
Spacecraft
Bus & Motor
Unknown
Mass
Unknown
Launch date (UTC)
2010-10-31 (16 years ago)
Launch vehicle
Unknown
Launch site
Xichang Space Center, China (XSC)
Object type
Payload
Rocket body
Debris
Shape & HBR
Unknown shape, 0.3 m
Radar Cross Section
Medium (>0.1 m² and <1 m²)

Expand to show TLE details & history
Last TLE update: 1 day ago

TLE from 1 day ago
0 CZ-3C DEB
1 48544U 10057BP  26171.39858659  .00003409  00000-0  26936-2 0  9992
2 48544  20.3729 231.7992 4834079  86.6024 325.3870  5.73276265229031
Epoch: 2026-06-20T09:33Z
TLE epoch observation values (Epoch: 2026-06-20T09:33:57.881Z)
Latitude
0.00001°
Longitude
179.72362°
Altitude
3,437.936 km
Speed
7.141 km/s
True Right ascension
15h 27m 18s
True Declination
0° 00' 00"
Sunlit
Object was in daylight at epoch
Visualization orbit readout
Latitude
Unknown
Longitude
Unknown
Altitude
Unknown
Speed
Unknown
Apparent Right ascension
Unknown
Apparent Declination
Unknown
Sunlit
N/A
Visualization observer readout
Local Sidereal Time
03:27:14
Azimuth
Unknown
Elevation
Unknown
Doppler factor
Unknown
Orbital elements
Apogee altitude
13,190.213 km
Perigee altitude
436.479 km
Semi-major axis
13,191.483 km
Eccentricity
0.48341
Inclination
20.3729°
RAAN
231.7992°
Arg. of periapsis
86.6024°
True anomaly
273.42449°
Mean anomaly
325.387°
Eccentric anomaly
301.86352°
Mean motion
1.43253 °/min
Orbital period
251.3 mins
BSTAR
0.0026936
Loading maneuver chart data...
Computing Atmospheric mass density...
Loading historical data...
Loading historical data...
Loading historical data...
Loading historical data...
Loading historical data...
Loading historical data...
Loading historical data...

Documentation

Showing up to 5 results
|